Tracking 17925 objects as of 20-January-2017
HD Live streaming from Space Station
objects crossing your sky now

EUTE 7A (EUTE W3A)

Track EUTE 7A (EUTE W3A) now!
EUTE 7A (EUTE W3A) is classified as:


NORAD ID: 28187
Int'l Code: 2004-008A
Perigee: 35,775.6 km
Apogee: 35,812.9 km
Inclination: 0.1 °
Period: 1,436.1 minutes
Semi major axis: 42165 km
RCS: 29.9526 m2 (large)
Launch date: March 15, 2004
Source: European Telecommunications Satellite Organization (EUTE)
Launch site: TYURATAM MISSILE AND SPACE COMPLEX (TTMTR)

58 Ku-band transponders; covers whole of sub-Saharan Africa and provides connectivity to Europe and Middle East.
Your satellite tracking list
Your tracking list is empty





NASA's NSSDC Master Catalog

Two Line Element Set (TLE):
1 28187U 04008A   17019.16955448  .00000041  00000-0  00000+0 0  9992
2 28187   0.0715 338.8884 0004433 301.7293 266.1504  1.00270698 47123
Source of the keplerian elements: AFSPC